Bellefontaine, OH

12:54 AM EDT on October 22, 2017 (GMT -0400)
Bellefontaine

Weather History for KEDJ - January, 2014

Change the Weather History Date:

Saturday, January 11, 2014

  Actual Average (KDLZ) Record (KDLZ)
Temperature  
Mean Temperature 39 °F -  
Max Temperature 46 °F 30 °F 59 °F (2017)
Min Temperature 32 °F 13 °F -11 °F (1982)
Degree Days  
Heating Degree Days 26    
Moisture  
Dew Point 40 °F    
Average Humidity 98    
Maximum Humidity 100    
Minimum Humidity 87    
Precipitation  
Precipitation 0.16 in - - ()
Sea Level Pressure  
Sea Level Pressure 29.54 in    
Wind  
Wind Speed 15 mph (SW)    
Max Wind Speed 26 mph    
Max Gust Speed 33 mph    
Visibility 8 miles    
Events      
Averages and records for this station are not official NWS values.
T = Trace of Precipitation, MM = Missing Value Source: NWS Daily Summary

Daily Weather History Graph

Daily Weather History Graph

Search for Another Location

Airport or City:

Trip Planner

Search our weather history database for the weather conditions in past years. The results will help you decide how hot, cold, wet, or windy it might be!

Date:

Astronomy

Jan. 11, 2014 Rise Set
Actual Time 7:57 AM EST 5:29 PM EST
Civil Twilight 7:27 AM EST 5:59 PM EST
Nautical Twilight 6:53 AM EST 6:33 PM EST
Astronomical Twilight 6:20 AM EST 7:05 PM EST
Moon 2:12 PM EST (1/11) 4:01 AM EST (1/11)
Length of Visible Light 10h 32m
Length of Day
9h 31m
Waxing Gibbous, 83% of the Moon is Illuminated
Jan 11
Waxing Gibbous
Jan 15
Full
Jan 24
Last Quarter
Jan 30
New
Feb 6
First Quarter

Hourly Weather History & Observations

Time (EST) Temp. Windchill Dew Point Humidity Pressure Visibility Wind Dir Wind Speed Gust Speed Precip Events Conditions
12:10 AM 44.6 °F 37.4 °F 44.6 °F 100% 29.69 in 10.0 mi South 16.1 mph 19.6 mph 0.00 in   Overcast
12:30 AM 44.6 °F 37.4 °F 44.6 °F 100% 29.67 in 10.0 mi SSE 16.1 mph - 0.00 in   Mostly Cloudy
12:50 AM 44.6 °F 37.4 °F 44.6 °F 100% 29.66 in 10.0 mi SSE 16.1 mph 21.9 mph 0.00 in   Mostly Cloudy
1:10 AM 44.6 °F 38.8 °F 44.6 °F 100% 29.64 in 5.0 mi SSE 11.5 mph - 0.00 in   Mostly Cloudy
1:30 AM 44.6 °F 37.8 °F 44.6 °F 100% 29.64 in 5.0 mi SSE 15.0 mph 18.4 mph 0.01 in   Overcast
1:50 AM 44.6 °F 37.4 °F 44.6 °F 100% 29.63 in 5.0 mi South 16.1 mph 20.7 mph 0.03 in   Overcast
2:10 AM 44.6 °F 38.8 °F 44.6 °F 100% 29.62 in 4.0 mi South 11.5 mph - 0.01 in   Mostly Cloudy
2:30 AM 44.6 °F 37.8 °F 44.6 °F 100% 29.61 in 5.0 mi South 15.0 mph - 0.04 in   Overcast
2:50 AM 44.6 °F 37.8 °F 44.6 °F 100% 29.60 in 5.0 mi SSE 15.0 mph - 0.05 in   Mostly Cloudy
3:10 AM 46.4 °F 40.1 °F 46.4 °F 100% 29.57 in 10.0 mi SSE 15.0 mph 18.4 mph 0.00 in   Mostly Cloudy
3:30 AM 46.4 °F 39.5 °F 46.4 °F 100% 29.56 in 7.0 mi South 17.3 mph 25.3 mph 0.00 in   Overcast
3:50 AM 46.4 °F 39.8 °F 46.4 °F 100% 29.55 in 6.0 mi South 16.1 mph - 0.02 in   Overcast
4:10 AM 46.4 °F 39.8 °F 46.4 °F 100% 29.55 in 5.0 mi South 16.1 mph 20.7 mph 0.00 in   Overcast
4:30 AM 46.4 °F 40.1 °F 46.4 °F 100% 29.54 in 5.0 mi South 15.0 mph - 0.01 in   Overcast
4:50 AM 46.4 °F 40.7 °F 46.4 °F 100% 29.53 in 9.0 mi South 12.7 mph - 0.02 in   Overcast
5:10 AM 46.4 °F 41.1 °F 46.4 °F 100% 29.52 in 10.0 mi South 11.5 mph - 0.00 in   Mostly Cloudy
5:30 AM 46.4 °F 41.1 °F 46.4 °F 100% 29.52 in 10.0 mi South 11.5 mph - 0.00 in   Mostly Cloudy
5:50 AM 44.6 °F 38.8 °F 44.6 °F 100% 29.52 in 10.0 mi South 11.5 mph - 0.00 in   Mostly Cloudy
6:10 AM 44.6 °F 38.8 °F 44.6 °F 100% 29.51 in 10.0 mi South 11.5 mph - 0.00 in   Mostly Cloudy
6:30 AM 46.4 °F 41.1 °F 46.4 °F 100% 29.48 in 10.0 mi SSE 11.5 mph - 0.00 in   Mostly Cloudy
6:50 AM 44.6 °F 37.2 °F 44.6 °F 100% 29.44 in 9.0 mi SSE 17.3 mph - 0.00 in   Scattered Clouds
7:10 AM 46.4 °F 41.5 °F 46.4 °F 100% 29.46 in 10.0 mi South 10.4 mph - 0.00 in   Mostly Cloudy
7:30 AM 46.4 °F 41.5 °F 46.4 °F 100% 29.46 in 8.0 mi South 10.4 mph - 0.00 in   Overcast
7:50 AM 46.4 °F 41.5 °F 46.4 °F 100% 29.45 in 7.0 mi South 10.4 mph - 0.00 in   Overcast
8:10 AM 44.6 °F 39.2 °F 44.6 °F 100% 29.46 in 5.0 mi South 10.4 mph - 0.00 in   Overcast
8:30 AM 46.4 °F 41.1 °F 46.4 °F 100% 29.43 in 5.0 mi South 11.5 mph - 0.00 in   Overcast
8:50 AM 46.4 °F 41.1 °F 46.4 °F 100% 29.43 in 1.5 mi South 11.5 mph - 0.00 in   Overcast
9:10 AM 46.4 °F 41.9 °F 46.4 °F 100% 29.44 in 1.0 mi South 9.2 mph - 0.00 in   Overcast
9:30 AM 46.4 °F 41.1 °F 46.4 °F 100% 29.42 in 1.5 mi South 11.5 mph - 0.00 in   Overcast
9:50 AM 46.4 °F 40.7 °F 46.4 °F 100% 29.42 in 0.8 mi SSW 12.7 mph - 0.02 in   Overcast
10:10 AM 46.4 °F 40.7 °F 46.4 °F 100% 29.43 in 1.0 mi WSW 12.7 mph 19.6 mph 0.01 in   Overcast
10:30 AM 44.6 °F 37.2 °F 44.6 °F 100% 29.44 in 2.5 mi SW 17.3 mph 20.7 mph 0.02 in   Overcast
10:50 AM 44.6 °F 37.8 °F 44.6 °F 100% 29.45 in 2.0 mi SW 15.0 mph 25.3 mph 0.02 in   Overcast
11:10 AM 44.6 °F 37.4 °F 44.6 °F 100% 29.44 in 10.0 mi SW 16.1 mph 24.2 mph 0.00 in   Overcast
11:30 AM 44.6 °F 37.2 °F 44.6 °F 100% 29.44 in 10.0 mi WSW 17.3 mph 21.9 mph 0.00 in   Overcast
11:50 AM 44.6 °F 36.1 °F 44.6 °F 100% 29.43 in 10.0 mi WSW 21.9 mph 33.4 mph 0.00 in   Overcast
12:10 PM 42.8 °F 34.8 °F 42.8 °F 100% 29.43 in 10.0 mi WSW 17.3 mph 24.2 mph 0.00 in   Overcast
12:30 PM 42.8 °F 35.1 °F 42.8 °F 100% 29.43 in 10.0 mi WSW 16.1 mph 25.3 mph 0.00 in   Mostly Cloudy
12:50 PM 42.8 °F 34.0 °F 42.8 °F 100% 29.43 in 10.0 mi SW 20.7 mph 28.8 mph 0.00 in   Overcast
1:10 PM 42.8 °F 34.0 °F 39.2 °F 87% 29.43 in 10.0 mi WSW 20.7 mph 33.4 mph 0.00 in   Overcast
1:30 PM 42.8 °F 34.8 °F 39.2 °F 87% 29.44 in 10.0 mi WSW 17.3 mph 26.5 mph 0.00 in   Overcast
1:50 PM 41.0 °F 30.5 °F 37.4 °F 87% 29.44 in 8.0 mi West 26.5 mph 32.2 mph 0.00 in   Overcast
2:10 PM 37.4 °F 26.9 °F 37.4 °F 100% 29.45 in 5.0 mi WSW 20.7 mph 32.2 mph 0.00 in   Overcast
2:30 PM 37.4 °F 28.5 °F 35.6 °F 93% 29.46 in 10.0 mi WSW 15.0 mph 25.3 mph 0.00 in   Mostly Cloudy
2:50 PM 37.4 °F 28.5 °F 35.6 °F 93% 29.47 in 5.0 mi West 15.0 mph 20.7 mph 0.00 in   Overcast
3:10 PM 37.4 °F 28.9 °F 35.6 °F 93% 29.48 in 10.0 mi WSW 13.8 mph - 0.00 in   Overcast
3:30 PM 37.4 °F 27.5 °F 35.6 °F 93% 29.50 in 10.0 mi West 18.4 mph 24.2 mph 0.00 in   Overcast
3:50 PM 35.6 °F 24.8 °F 35.6 °F 100% 29.50 in 10.0 mi West 19.6 mph 24.2 mph 0.00 in   Overcast
4:10 PM 35.6 °F 24.5 °F 35.6 °F 100% 29.52 in 10.0 mi WSW 20.7 mph 27.6 mph 0.00 in   Overcast
4:30 PM 35.6 °F 24.8 °F 33.8 °F 93% 29.53 in 10.0 mi West 19.6 mph 29.9 mph 0.00 in   Overcast
4:50 PM 33.8 °F 23.5 °F 33.8 °F 100% 29.54 in 10.0 mi West 16.1 mph 31.1 mph 0.00 in   Overcast
5:10 PM 33.8 °F 22.8 °F 33.8 °F 100% 29.55 in 9.0 mi WSW 18.4 mph 25.3 mph 0.00 in   Overcast
5:30 PM 33.8 °F 23.5 °F 33.8 °F 100% 29.56 in 9.0 mi WSW 16.1 mph 26.5 mph 0.00 in   Overcast
5:50 PM 33.8 °F 21.9 °F 33.8 °F 100% 29.56 in 8.0 mi WSW 21.9 mph 29.9 mph 0.00 in   Overcast
6:10 PM 33.8 °F 21.9 °F 33.8 °F 100% 29.57 in 7.0 mi WSW 21.9 mph 29.9 mph 0.00 in   Overcast
6:30 PM 33.8 °F 23.5 °F 33.8 °F 100% 29.58 in 5.0 mi WSW 16.1 mph 26.5 mph 0.00 in   Overcast
6:50 PM 33.8 °F 24.3 °F 33.8 °F 100% 29.60 in 6.0 mi WSW 13.8 mph 21.9 mph 0.00 in   Overcast
7:10 PM 32.0 °F 20.8 °F 32.0 °F 100% 29.60 in 6.0 mi WSW 17.3 mph 24.2 mph 0.00 in   Overcast
7:30 PM 33.8 °F 23.2 °F 33.8 °F 100% 29.61 in 5.0 mi WSW 17.3 mph 23.0 mph 0.00 in   Overcast
7:50 PM 32.0 °F 20.8 °F 32.0 °F 100% 29.63 in 8.0 mi WSW 17.3 mph 25.3 mph 0.00 in   Overcast
8:10 PM 32.0 °F 18.9 °F 30.2 °F 93% 29.64 in 10.0 mi West 24.2 mph 29.9 mph 0.00 in   Overcast
8:30 PM 32.0 °F 21.2 °F 30.2 °F 93% 29.66 in 10.0 mi West 16.1 mph 24.2 mph 0.00 in   Overcast
8:50 PM 32.0 °F 20.8 °F 32.0 °F 100% 29.67 in 10.0 mi WSW 17.3 mph - 0.00 in   Overcast
9:10 PM 32.0 °F 20.5 °F 32.0 °F 100% 29.67 in 9.0 mi WSW 18.4 mph 23.0 mph 0.00 in   Overcast
9:30 PM 33.8 °F 22.8 °F 32.0 °F 93% 29.68 in 10.0 mi WSW 18.4 mph 21.9 mph 0.00 in   Overcast
9:50 PM 33.8 °F 25.3 °F 32.0 °F 93% 29.69 in 10.0 mi WSW 11.5 mph - 0.00 in   Overcast
10:10 PM 33.8 °F 24.8 °F 32.0 °F 93% 29.69 in 10.0 mi WSW 12.7 mph - 0.00 in   Overcast
10:30 PM 33.8 °F 24.8 °F 32.0 °F 93% 29.70 in 10.0 mi WSW 12.7 mph 17.3 mph 0.00 in   Overcast
10:50 PM 33.8 °F 25.3 °F 32.0 °F 93% 29.70 in 10.0 mi WSW 11.5 mph - 0.00 in   Overcast
11:10 PM 33.8 °F 24.3 °F 32.0 °F 93% 29.71 in 9.0 mi WSW 13.8 mph - 0.00 in   Overcast
11:30 PM 33.8 °F 25.3 °F 32.0 °F 93% 29.71 in 9.0 mi SW 11.5 mph - 0.00 in   Overcast
11:50 PM 33.8 °F 25.8 °F 32.0 °F 93% 29.71 in 8.0 mi SW 10.4 mph - 0.00 in   Overcast